Time,TemperatureF,DewpointF,PressureIn,WindDirection,WindDirectionDegrees,WindSpeedMPH,WindSpeedGustMPH,Humidity,HourlyPrecipIn,Conditions,Clouds,dailyrainin,SoftwareType,DateUTC
2013-03-14 00:00:00,34.4,20.7,30.35,NNE,15,2.0,9.0,57,0.00,CLR,,0.00,WeatherDisplay:10.37,2013-03-14 04:00:00,
2013-03-14 00:10:00,34.3,20.6,30.35,NNE,26,3.0,8.0,57,0.00,CLR,,0.00,WeatherDisplay:10.37,2013-03-14 04:10:00,
2013-03-14 00:20:00,34.3,20.6,30.36,NE,44,1.0,7.0,57,0.00,CLR,,0.00,WeatherDisplay:10.37,2013-03-14 04:20:00,
2013-03-14 00:30:00,33.9,20.3,30.35,NE,42,1.0,5.0,57,0.00,CLR,,0.00,WeatherDisplay:10.37,2013-03-14 04:30:00,
2013-03-14 00:40:00,33.7,20.9,30.35,NNE,27,1.0,6.0,59,0.00,CLR,,0.00,WeatherDisplay:10.37,2013-03-14 04:40:00,
2013-03-14 00:50:00,33.5,20.3,30.35,NNE,29,6.0,12.0,58,0.00,CLR,,0.00,WeatherDisplay:10.37,2013-03-14 04:50:00,
2013-03-14 01:00:00,33.6,20.8,30.35,NNE,26,3.0,10.0,59,0.00,CLR,,0.00,WeatherDisplay:10.37,2013-03-14 05:00:00,
2013-03-14 01:10:00,33.4,20.6,30.35,NNE,24,2.0,10.0,59,0.00,CLR,,0.00,WeatherDisplay:10.37,2013-03-14 05:10:00,
2013-03-14 01:20:00,33.1,20.3,30.36,NE,38,3.0,9.0,59,0.00,CLR,,0.00,WeatherDisplay:10.37,2013-03-14 05:20:00,
2013-03-14 01:30:00,33.0,20.2,30.36,NNE,23,3.0,6.0,59,0.00,CLR,,0.00,WeatherDisplay:10.37,2013-03-14 05:30:00,
2013-03-14 01:40:00,32.9,20.5,30.37,NNE,25,2.0,8.0,60,0.00,CLR,,0.00,WeatherDisplay:10.37,2013-03-14 05:40:00,
2013-03-14 01:50:00,32.8,20.4,30.37,NNE,33,5.0,7.0,60,0.00,CLR,,0.00,WeatherDisplay:10.37,2013-03-14 05:50:00,
2013-03-14 02:00:00,32.5,20.2,30.37,North,354,2.0,8.0,60,0.00,CLR,,0.00,WeatherDisplay:10.37,2013-03-14 06:00:00,
2013-03-14 02:10:00,32.1,20.2,30.37,North,349,1.0,7.0,61,0.00,CLR,,0.00,WeatherDisplay:10.37,2013-03-14 06:10:00,
2013-03-14 02:20:00,32.0,20.4,30.37,NNE,20,1.0,9.0,62,0.00,CLR,,0.00,WeatherDisplay:10.37,2013-03-14 06:20:00,
2013-03-14 02:30:00,32.0,20.1,30.37,NNE,12,3.0,8.0,61,0.00,CLR,,0.00,WeatherDisplay:10.37,2013-03-14 06:30:00,
2013-03-14 02:40:00,32.1,20.2,30.37,NNE,17,3.0,9.0,61,0.00,CLR,,0.00,WeatherDisplay:10.37,2013-03-14 06:40:00,
2013-03-14 02:50:00,32.0,20.1,30.38,North,6,3.0,12.0,61,0.00,SCT,,0.00,WeatherDisplay:10.37,2013-03-14 06:50:00,
2013-03-14 03:00:00,31.9,20.0,30.38,NNE,23,2.0,7.0,61,0.00,SCT,,0.00,WeatherDisplay:10.37,2013-03-14 07:00:00,
2013-03-14 03:10:00,31.8,19.8,30.38,NNE,21,3.0,12.0,61,0.00,SCT,,0.00,WeatherDisplay:10.37,2013-03-14 07:10:00,
2013-03-14 03:20:00,31.7,20.2,30.38,NNE,27,1.0,8.0,62,0.00,SCT,,0.00,WeatherDisplay:10.37,2013-03-14 07:20:00,
2013-03-14 03:30:00,31.5,20.3,30.38,NNE,21,1.0,7.0,63,0.00,SCT,,0.00,WeatherDisplay:10.37,2013-03-14 07:30:00,
2013-03-14 03:40:00,31.4,20.2,30.38,NNE,17,2.0,8.0,63,0.00,CLR,,0.00,WeatherDisplay:10.37,2013-03-14 07:40:00,
2013-03-14 03:50:00,31.3,20.1,30.38,NE,52,1.0,12.0,63,0.00,SCT,,0.00,WeatherDisplay:10.37,2013-03-14 07:50:00,
2013-03-14 04:00:00,31.1,20.4,30.38,NNE,13,2.0,7.0,64,0.00,SCT,,0.00,WeatherDisplay:10.37,2013-03-14 08:00:00,
2013-03-14 04:10:00,31.0,20.2,30.37,NE,35,3.0,9.0,64,0.00,SCT,,0.00,WeatherDisplay:10.37,2013-03-14 08:10:00,
2013-03-14 04:20:00,30.9,20.5,30.37,NNE,30,2.0,7.0,65,0.00,SCT,,0.00,WeatherDisplay:10.37,2013-03-14 08:20:00,
2013-03-14 04:30:00,30.7,20.0,30.37,NNE,18,2.0,10.0,64,0.00,SCT,,0.00,WeatherDisplay:10.37,2013-03-14 08:30:00,
2013-03-14 04:40:00,30.6,19.9,30.37,NNE,22,2.0,8.0,64,0.00,CLR,,0.00,WeatherDisplay:10.37,2013-03-14 08:40:00,
2013-03-14 04:50:00,30.5,19.8,30.36,NNE,15,1.0,7.0,64,0.00,SCT,,0.00,WeatherDisplay:10.37,2013-03-14 08:50:00,
2013-03-14 05:00:00,30.3,19.9,30.36,NNE,25,1.0,8.0,65,0.00,SCT,,0.00,WeatherDisplay:10.37,2013-03-14 09:00:00,
2013-03-14 05:10:00,30.3,19.9,30.36,NNE,25,1.0,12.0,65,0.00,SCT,,0.00,WeatherDisplay:10.37,2013-03-14 09:10:00,
2013-03-14 05:20:00,30.2,19.8,30.36,NNW,347,1.0,8.0,65,0.00,SCT,,0.00,WeatherDisplay:10.37,2013-03-14 09:20:00,
2013-03-14 05:30:00,30.1,19.7,30.36,NNE,27,5.0,12.0,65,0.00,SCT,,0.00,WeatherDisplay:10.37,2013-03-14 09:30:00,
2013-03-14 05:40:00,30.2,19.8,30.36,NNE,33,1.0,10.0,65,0.00,SCT,,0.00,WeatherDisplay:10.37,2013-03-14 09:40:00,
2013-03-14 05:50:00,30.1,19.7,30.37,North,1,3.0,9.0,65,0.00,SCT,,0.00,WeatherDisplay:10.37,2013-03-14 09:50:00,
2013-03-14 06:00:00,29.9,19.6,30.37,North,4,3.0,13.0,65,0.00,SCT,,0.00,WeatherDisplay:10.37,2013-03-14 10:00:00,
2013-03-14 06:10:00,29.9,19.5,30.37,NNE,19,2.0,13.0,65,0.00,SCT,,0.00,WeatherDisplay:10.37,2013-03-14 10:10:00,
2013-03-14 06:20:00,29.7,19.8,30.37,North,2,5.0,12.0,66,0.00,SCT,,0.00,WeatherDisplay:10.37,2013-03-14 10:20:00,
2013-03-14 06:30:00,29.8,19.8,30.38,North,353,3.0,13.0,66,0.00,SCT,,0.00,WeatherDisplay:10.37,2013-03-14 10:30:00,
2013-03-14 06:40:00,29.7,19.7,30.38,North,2,2.0,9.0,66,0.00,SCT,,0.00,WeatherDisplay:10.37,2013-03-14 10:40:00,
2013-03-14 06:50:00,29.6,20.0,30.38,NNE,20,3.0,10.0,67,0.00,SCT,,0.00,WeatherDisplay:10.37,2013-03-14 10:50:00,
2013-03-14 07:00:00,29.5,19.9,30.39,NW,311,2.0,12.0,67,0.00,SCT,,0.00,WeatherDisplay:10.37,2013-03-14 11:00:00,
2013-03-14 07:10:00,29.4,19.8,30.39,North,354,3.0,10.0,67,0.00,SCT,,0.00,WeatherDisplay:10.37,2013-03-14 11:10:00,
2013-03-14 07:20:00,29.2,19.9,30.39,North,10,5.0,9.0,68,0.00,SCT,,0.00,WeatherDisplay:10.37,2013-03-14 11:20:00,
2013-03-14 07:30:00,29.1,19.8,30.39,North,9,3.0,12.0,68,0.00,SCT,,0.00,WeatherDisplay:10.37,2013-03-14 11:30:00,
2013-03-14 07:40:00,29.1,19.9,30.40,NNE,13,5.0,12.0,68,0.00,SCT,,0.00,WeatherDisplay:10.37,2013-03-14 11:40:00,
2013-03-14 07:50:00,29.1,19.9,30.39,NE,49,3.0,8.0,68,0.00,SCT,,0.00,WeatherDisplay:10.37,2013-03-14 11:50:00,
2013-03-14 08:00:00,29.2,19.6,30.39,NE,51,2.0,8.0,67,0.00,SCT,,0.00,WeatherDisplay:10.37,2013-03-14 12:00:00,
2013-03-14 08:10:00,29.3,19.3,30.39,NNE,28,5.0,14.0,66,0.00,CLR,,0.00,WeatherDisplay:10.37,2013-03-14 12:10:00,
2013-03-14 08:20:00,29.7,19.7,30.40,NNE,33,2.0,8.0,66,0.00,CLR,,0.00,WeatherDisplay:10.37,2013-03-14 12:20:00,
2013-03-14 08:30:00,29.9,19.9,30.39,NNE,30,3.0,8.0,66,0.00,CLR,,0.00,WeatherDisplay:10.37,2013-03-14 12:30:00,
2013-03-14 08:40:00,30.2,20.2,30.39,NE,44,5.0,8.0,66,0.00,CLR,,0.00,WeatherDisplay:10.37,2013-03-14 12:40:00,
2013-03-14 08:50:00,30.3,19.9,30.40,NE,43,3.0,13.0,65,0.00,CLR,,0.00,WeatherDisplay:10.37,2013-03-14 12:50:00,
2013-03-14 09:00:00,30.4,19.7,30.40,NE,37,5.0,15.0,64,0.00,CLR,,0.00,WeatherDisplay:10.37,2013-03-14 13:00:00,
2013-03-14 09:10:00,30.9,19.8,30.40,NNE,30,6.0,12.0,63,0.00,CLR,,0.00,WeatherDisplay:10.37,2013-03-14 13:10:00,
2013-03-14 09:20:00,31.0,19.9,30.40,NE,47,8.0,20.0,63,0.00,CLR,,0.00,WeatherDisplay:10.37,2013-03-14 13:20:00,
2013-03-14 09:30:00,31.4,20.2,30.42,NE,42,5.0,14.0,63,0.00,CLR,,0.00,WeatherDisplay:10.37,2013-03-14 13:30:00,
2013-03-14 09:40:00,32.1,20.2,30.43,NE,39,6.0,13.0,61,0.00,CLR,,0.00,WeatherDisplay:10.37,2013-03-14 13:40:00,
2013-03-14 09:50:00,32.2,19.9,30.43,NNE,33,5.0,14.0,60,0.00,CLR,,0.00,WeatherDisplay:10.37,2013-03-14 13:50:00,
2013-03-14 10:00:00,32.8,20.8,30.43,NE,44,5.0,12.0,61,0.00,CLR,,0.00,WeatherDisplay:10.37,2013-03-14 14:00:00,
2013-03-14 10:10:00,33.1,20.7,30.44,NE,42,6.0,13.0,60,0.00,CLR,,0.00,WeatherDisplay:10.37,2013-03-14 14:10:00,
2013-03-14 10:20:00,33.5,21.1,30.43,NE,46,5.0,10.0,60,0.00,CLR,,0.00,WeatherDisplay:10.37,2013-03-14 14:20:00,
2013-03-14 10:30:00,33.6,20.4,30.43,NNE,25,9.0,14.0,58,0.00,CLR,,0.00,WeatherDisplay:10.37,2013-03-14 14:30:00,
2013-03-14 10:40:00,34.3,21.4,30.43,NE,41,5.0,14.0,59,0.00,CLR,,0.00,WeatherDisplay:10.37,2013-03-14 14:40:00,
2013-03-14 10:50:00,34.3,21.1,30.42,NE,43,2.0,14.0,58,0.00,CLR,,0.00,WeatherDisplay:10.37,2013-03-14 14:50:00,
2013-03-14 11:00:00,34.9,20.8,30.42,NE,47,5.0,8.0,56,0.00,CLR,,0.00,WeatherDisplay:10.37,2013-03-14 15:00:00,
2013-03-14 11:10:00,35.6,21.9,30.42,NNE,25,1.0,9.0,57,0.00,CLR,,0.00,WeatherDisplay:10.37,2013-03-14 15:10:00,
2013-03-14 11:20:00,36.4,21.8,30.42,ENE,57,5.0,8.0,55,0.00,CLR,,0.00,WeatherDisplay:10.37,2013-03-14 15:20:00,
2013-03-14 11:30:00,36.7,21.2,30.42,ENE,66,3.0,10.0,53,0.00,CLR,,0.00,WeatherDisplay:10.37,2013-03-14 15:30:00,
2013-03-14 11:40:00,37.0,21.4,30.43,NE,48,7.0,12.0,53,0.00,CLR,,0.00,WeatherDisplay:10.37,2013-03-14 15:40:00,
2013-03-14 11:50:00,37.5,20.0,30.43,NE,42,9.0,15.0,49,0.00,CLR,,0.00,WeatherDisplay:10.37,2013-03-14 15:50:00,
2013-03-14 12:00:00,38.0,21.4,30.43,NE,36,3.0,10.0,51,0.00,CLR,,0.00,WeatherDisplay:10.37,2013-03-14 16:00:00,
2013-03-14 12:10:00,38.7,21.1,30.42,NE,50,3.0,10.0,49,0.00,CLR,,0.00,WeatherDisplay:10.37,2013-03-14 16:10:00,
2013-03-14 12:20:00,39.8,20.6,30.42,NNE,24,1.0,8.0,46,0.00,CLR,,0.00,WeatherDisplay:10.37,2013-03-14 16:20:00,
2013-03-14 12:30:00,39.6,20.5,30.41,ENE,58,2.0,12.0,46,0.00,CLR,,0.00,WeatherDisplay:10.37,2013-03-14 16:30:00,
2013-03-14 12:40:00,40.3,20.6,30.41,NNE,14,6.0,10.0,45,0.00,CLR,,0.00,WeatherDisplay:10.37,2013-03-14 16:40:00,
2013-03-14 12:50:00,40.4,21.7,30.41,NE,43,5.0,8.0,47,0.00,CLR,,0.00,WeatherDisplay:10.37,2013-03-14 16:50:00,
2013-03-14 13:00:00,41.0,21.3,30.40,East,84,1.0,7.0,45,0.00,CLR,,0.00,WeatherDisplay:10.37,2013-03-14 17:00:00,
2013-03-14 13:10:00,41.3,18.8,30.40,NE,41,5.0,12.0,40,0.00,CLR,,0.00,WeatherDisplay:10.37,2013-03-14 17:10:00,
2013-03-14 13:20:00,41.8,19.8,30.40,NE,50,6.0,12.0,41,0.00,CLR,,0.00,WeatherDisplay:10.37,2013-03-14 17:20:00,
2013-03-14 13:30:00,42.4,19.8,30.40,NE,54,2.0,12.0,40,0.00,CLR,,0.00,WeatherDisplay:10.37,2013-03-14 17:30:00,
2013-03-14 13:40:00,44.4,21.0,30.39,NE,54,3.0,7.0,39,0.00,CLR,,0.00,WeatherDisplay:10.37,2013-03-14 17:40:00,
2013-03-14 13:50:00,44.1,19.4,30.40,WNW,301,2.0,12.0,37,0.00,CLR,,0.00,WeatherDisplay:10.37,2013-03-14 17:50:00,
2013-03-14 14:00:00,44.6,20.5,30.39,NE,45,2.0,10.0,38,0.00,CLR,,0.00,WeatherDisplay:10.37,2013-03-14 18:00:00,
2013-03-14 14:10:00,45.3,20.5,30.38,NE,52,3.0,6.0,37,0.00,CLR,,0.00,WeatherDisplay:10.37,2013-03-14 18:10:00,
2013-03-14 14:20:00,45.9,22.3,30.38,East,88,6.0,8.0,39,0.00,CLR,,0.00,WeatherDisplay:10.37,2013-03-14 18:20:00,
2013-03-14 14:30:00,46.6,21.0,30.37,ENE,61,3.0,7.0,36,0.00,CLR,,0.00,WeatherDisplay:10.37,2013-03-14 18:30:00,
2013-03-14 14:40:00,47.0,22.0,30.36,NE,51,3.0,9.0,37,0.00,CLR,,0.00,WeatherDisplay:10.37,2013-03-14 18:40:00,
2013-03-14 14:50:00,47.3,19.6,30.35,NE,35,1.0,6.0,33,0.00,CLR,,0.00,WeatherDisplay:10.37,2013-03-14 18:50:00,
2013-03-14 15:00:00,47.6,19.9,30.35,NE,36,5.0,7.0,33,0.00,CLR,,0.00,WeatherDisplay:10.37,2013-03-14 19:00:00,
2013-03-14 15:10:00,47.7,21.3,30.35,NE,53,2.0,6.0,35,0.00,CLR,,0.00,WeatherDisplay:10.37,2013-03-14 19:10:00,
2013-03-14 15:20:00,47.6,20.6,30.35,NE,43,3.0,8.0,34,0.00,CLR,,0.00,WeatherDisplay:10.37,2013-03-14 19:20:00,
2013-03-14 15:30:00,48.3,19.8,30.34,ENE,59,0.0,8.0,32,0.00,CLR,,0.00,WeatherDisplay:10.37,2013-03-14 19:30:00,
2013-03-14 15:40:00,49.3,20.6,30.33,SSE,150,2.0,8.0,32,0.00,CLR,,0.00,WeatherDisplay:10.37,2013-03-14 19:40:00,
2013-03-14 15:50:00,49.2,19.0,30.33,North,353,1.0,12.0,30,0.00,CLR,,0.00,WeatherDisplay:10.37,2013-03-14 19:50:00,
2013-03-14 16:00:00,49.2,19.1,30.33,SSW,209,2.0,5.0,30,0.00,CLR,,0.00,WeatherDisplay:10.37,2013-03-14 20:00:00,
2013-03-14 16:10:00,49.4,19.2,30.33,East,84,6.0,12.0,30,0.00,CLR,,0.00,WeatherDisplay:10.37,2013-03-14 20:10:00,
2013-03-14 16:20:00,49.8,18.8,30.33,ENE,63,5.0,8.0,29,0.00,CLR,,0.00,WeatherDisplay:10.37,2013-03-14 20:20:00,
2013-03-14 16:30:00,49.9,17.2,30.32,NW,326,3.0,7.0,27,0.00,CLR,,0.00,WeatherDisplay:10.37,2013-03-14 20:30:00,
2013-03-14 16:40:00,49.5,18.5,30.32,ESE,112,2.0,6.0,29,0.00,CLR,,0.00,WeatherDisplay:10.37,2013-03-14 20:40:00,
2013-03-14 16:50:00,49.3,15.8,30.31,North,353,3.0,7.0,26,0.00,CLR,,0.00,WeatherDisplay:10.37,2013-03-14 20:50:00,
2013-03-14 17:00:00,49.8,17.1,30.30,NE,48,3.0,6.0,27,0.00,CLR,,0.00,WeatherDisplay:10.37,2013-03-14 21:00:00,
2013-03-14 17:10:00,50.5,19.4,30.30,ENE,75,0.0,5.0,29,0.00,CLR,,0.00,WeatherDisplay:10.37,2013-03-14 21:10:00,
2013-03-14 17:20:00,51.5,19.4,30.29,ENE,58,3.0,6.0,28,0.00,CLR,,0.00,WeatherDisplay:10.37,2013-03-14 21:20:00,
2013-03-14 17:30:00,51.5,16.8,30.29,NE,46,1.0,5.0,25,0.00,CLR,,0.00,WeatherDisplay:10.37,2013-03-14 21:30:00,
2013-03-14 17:40:00,52.6,18.6,30.29,NE,46,2.0,4.0,26,0.00,CLR,,0.00,WeatherDisplay:10.37,2013-03-14 21:40:00,
2013-03-14 17:50:00,51.7,17.0,30.29,NE,53,1.0,6.0,25,0.00,CLR,,0.00,WeatherDisplay:10.37,2013-03-14 21:50:00,
2013-03-14 18:00:00,51.3,18.4,30.28,NE,39,5.0,12.0,27,0.00,CLR,,0.00,WeatherDisplay:10.37,2013-03-14 22:00:00,
2013-03-14 18:10:00,51.3,18.4,30.29,NE,42,2.0,7.0,27,0.00,CLR,,0.00,WeatherDisplay:10.37,2013-03-14 22:10:00,
2013-03-14 18:20:00,51.9,18.9,30.29,NE,41,0.0,5.0,27,0.00,CLR,,0.00,WeatherDisplay:10.37,2013-03-14 22:20:00,
2013-03-14 18:30:00,52.7,18.7,30.29,NE,40,0.0,2.0,26,0.00,CLR,,0.00,WeatherDisplay:10.37,2013-03-14 22:30:00,
2013-03-14 18:40:00,52.0,23.7,30.28,NE,40,0.0,1.0,33,0.00,CLR,,0.00,WeatherDisplay:10.37,2013-03-14 22:40:00,
2013-03-14 18:50:00,51.5,22.6,30.28,NE,40,0.0,1.0,32,0.00,CLR,,0.00,WeatherDisplay:10.37,2013-03-14 22:50:00,
2013-03-14 19:00:00,51.4,21.8,30.28,NE,40,0.0,0.0,31,0.00,CLR,,0.00,WeatherDisplay:10.37,2013-03-14 23:00:00,
2013-03-14 19:10:00,51.4,20.9,30.27,NE,40,0.0,0.0,30,0.00,SCT,,0.00,WeatherDisplay:10.37,2013-03-14 23:10:00,
2013-03-14 19:20:00,51.0,22.1,30.28,NE,40,0.0,1.0,32,0.00,SCT,,0.00,WeatherDisplay:10.37,2013-03-14 23:20:00,
2013-03-14 19:30:00,50.4,23.1,30.28,NE,40,0.0,2.0,34,0.00,SCT,,0.00,WeatherDisplay:10.37,2013-03-14 23:30:00,
2013-03-14 19:40:00,50.1,23.5,30.27,NE,40,0.0,0.0,35,0.00,OVC,,0.00,WeatherDisplay:10.37,2013-03-14 23:40:00,
2013-03-14 19:50:00,49.9,24.0,30.27,NE,40,0.0,0.0,36,0.00,BKN,,0.00,WeatherDisplay:10.37,2013-03-14 23:50:00,
2013-03-14 20:00:00,49.3,26.6,30.27,NE,40,0.0,1.0,41,0.00,BKN,,0.00,WeatherDisplay:10.37,2013-03-15 00:00:00,
2013-03-14 20:10:00,48.6,24.1,30.28,NE,40,0.0,2.0,38,0.00,OVC,,0.00,WeatherDisplay:10.37,2013-03-15 00:10:00,
2013-03-14 20:20:00,48.1,25.5,30.27,NE,40,0.0,3.0,41,0.00,OVC,,0.00,WeatherDisplay:10.37,2013-03-15 00:20:00,
2013-03-14 20:30:00,47.8,24.0,30.28,NE,40,0.0,2.0,39,0.00,OVC,,0.00,WeatherDisplay:10.37,2013-03-15 00:30:00,
2013-03-14 20:40:00,47.5,28.3,30.29,NE,40,0.0,1.0,47,0.00,OVC,,0.00,WeatherDisplay:10.37,2013-03-15 00:40:00,
2013-03-14 20:50:00,47.2,28.5,30.29,NE,40,0.0,1.0,48,0.00,OVC,,0.00,WeatherDisplay:10.37,2013-03-15 00:50:00,
2013-03-14 21:00:00,47.8,25.2,30.30,SSW,195,1.0,5.0,41,0.00,OVC,,0.00,WeatherDisplay:10.37,2013-03-15 01:00:00,
2013-03-14 21:10:00,48.5,26.5,30.30,NE,54,5.0,8.0,42,0.00,OVC,,0.00,WeatherDisplay:10.37,2013-03-15 01:10:00,
2013-03-14 21:20:00,48.2,29.4,30.31,NE,38,6.0,13.0,48,0.00,OVC,,0.00,WeatherDisplay:10.37,2013-03-15 01:20:00,
2013-03-14 21:30:00,47.0,30.7,30.33,NE,48,8.0,14.0,53,0.00,OVC,,0.00,WeatherDisplay:10.37,2013-03-15 01:30:00,
2013-03-14 21:40:00,45.9,32.8,30.32,SSE,151,6.0,12.0,60,0.00,OVC,,0.00,WeatherDisplay:10.37,2013-03-15 01:40:00,
2013-03-14 21:50:00,44.7,34.1,30.32,NNE,22,3.0,12.0,66,0.00,-DZ,,0.00,WeatherDisplay:10.37,2013-03-15 01:50:00,
2013-03-14 22:00:00,43.1,34.3,30.33,South,191,0.0,12.0,71,0.00,-DZ,,0.00,WeatherDisplay:10.37,2013-03-15 02:00:00,
2013-03-14 22:10:00,42.3,34.6,30.33,ESE,107,0.0,8.0,74,0.00,OVC,,0.00,WeatherDisplay:10.37,2013-03-15 02:10:00,
2013-03-14 22:20:00,41.9,35.9,30.32,NE,55,0.0,2.0,79,0.00,OVC,,0.00,WeatherDisplay:10.37,2013-03-15 02:20:00,
2013-03-14 22:30:00,41.7,35.7,30.32,NE,55,0.0,2.0,79,0.00,OVC,,0.00,WeatherDisplay:10.37,2013-03-15 02:30:00,
2013-03-14 22:40:00,41.5,36.4,30.32,NE,55,0.0,1.0,82,0.01,RA,,0.01,WeatherDisplay:10.37,2013-03-15 02:40:00,
2013-03-14 22:50:00,41.3,36.5,30.32,NE,55,0.0,0.0,83,0.00,-RA,,0.01,WeatherDisplay:10.37,2013-03-15 02:50:00,
2013-03-14 23:00:00,41.1,36.7,30.32,NE,55,0.0,0.0,84,0.00,-RA,,0.01,WeatherDisplay:10.37,2013-03-15 03:00:00,
2013-03-14 23:10:00,41.0,36.5,30.31,NE,55,0.0,0.0,84,0.00,-RA,,0.01,WeatherDisplay:10.37,2013-03-15 03:10:00,
2013-03-14 23:20:00,41.0,36.8,30.31,NE,55,0.0,1.0,85,0.00,-RA,,0.01,WeatherDisplay:10.37,2013-03-15 03:20:00,
2013-03-14 23:30:00,40.9,37.0,30.30,NE,55,0.0,2.0,86,0.00,-RA,,0.01,WeatherDisplay:10.37,2013-03-15 03:30:00,
2013-03-14 23:40:00,40.9,37.0,30.30,NE,55,0.0,1.0,86,0.00,OVC,,0.01,WeatherDisplay:10.37,2013-03-15 03:40:00,
2013-03-14 23:50:00,40.7,37.1,30.30,NE,55,0.0,2.0,87,0.00,OVC,,0.01,WeatherDisplay:10.37,2013-03-15 03:50:00,